Location: Recife
(8.0585°S, 34.8848°W)
Time: 13:35:27
(UTC-03:00)

Vanguard 1 - Pass Details

Date: 20 April 2026
Orbit: 654 x 3817 km, 34.3° (Epoch: 11 May)

Event Time Altitude Azimuth Distance (km) Brightness Sun altitude
Rises 20:22:45 0° 269° (W) 6,078 14.8 -46.6°
Reaches altitude 10° 20:27:18 10° 280° (W) 5,511 14.4 -47.7°
Maximum altitude 20:41:20 27° 331° (NNW) 5,161 13.7 -51.2°
Drops below altitude 10° 20:59:13 10° 22° (NNE) 6,901 14.2 -55.6°
Sets 21:06:17 0° 34° (NNE) 7,806 14.5 -57.3°
